ISS (25544 NORAD) Tracking and Keplerian Element Data

This shows tracking and keplerian element data for the satellite.

Feedback or suggestion? Click here.




ElementValue
Catalog25544
NameISS
Epoch Orbit2189
Epoch Day318.56174252
Epoch Year2018
RAAN349.3636
Inclination51.6407
Eccentricity0.0005225
Argument of Perigee46.2312
Mean Anonmoly313.9272
Mean Motion15.53934233
Decay Rate0.00016717
L11 25544U 98067A 18318.56174252 .00016717 00000-0 10270-3 0 9022
L22 25544 51.6407 349.3636 0005225 46.2312 313.9272 15.53934233 21896

Live tracking and technical data element details for ISS (NORAD 25544). ISS can be tracked NOW for your location showing map with azimuth and elevation plus other details from your city location.

Track the satellite on the map from your city or location and see movement details for azimuth, elevation, latitude, longitude, range, height, and movement on the map or in text.







IsCatalogInMostPopularTable: catalog: 25544, numindb: 9017
Update: records affected: 1



GetName: 25544 ISS

Hit Count: updated at: Wed, 14 Nov 2018 11:13:04 GMT